Year,Month,Day,Hour,Minute,Value (Times are PST for temperature in C)
2012,08,04,00,00,21.20
2012,08,04,00,01,21.20
2012,08,04,00,02,21.20
2012,08,04,00,03,21.20
2012,08,04,00,04,21.20
2012,08,04,00,05,21.20
2012,08,04,00,06,21.20
2012,08,04,00,07,21.10
2012,08,04,00,08,21.10
2012,08,04,00,09,21.10
2012,08,04,00,10,21.00
2012,08,04,00,11,21.00
2012,08,04,00,12,21.00
2012,08,04,00,13,20.90
2012,08,04,00,14,20.90
2012,08,04,00,15,20.90
2012,08,04,00,16,20.80
2012,08,04,00,17,20.80
2012,08,04,00,18,20.80
2012,08,04,00,19,20.80
2012,08,04,00,20,20.80
2012,08,04,00,21,20.70
2012,08,04,00,22,20.80
2012,08,04,00,23,20.80
2012,08,04,00,24,20.80
2012,08,04,00,25,20.80
2012,08,04,00,26,20.80
2012,08,04,00,27,20.80
2012,08,04,00,28,20.70
2012,08,04,00,29,20.70
2012,08,04,00,30,20.70
2012,08,04,00,31,20.70
2012,08,04,00,32,20.70
2012,08,04,00,33,20.70
2012,08,04,00,34,20.70
2012,08,04,00,35,20.60
2012,08,04,00,36,20.60
2012,08,04,00,37,20.60
2012,08,04,00,38,20.60
2012,08,04,00,39,20.60
2012,08,04,00,40,20.60
2012,08,04,00,41,20.60
2012,08,04,00,42,20.60
2012,08,04,00,43,20.60
2012,08,04,00,44,20.60
2012,08,04,00,45,20.60
2012,08,04,00,46,20.60
2012,08,04,00,47,20.50
2012,08,04,00,48,20.50
2012,08,04,00,49,20.50
2012,08,04,00,50,20.50
2012,08,04,00,51,20.50
2012,08,04,00,52,20.40
2012,08,04,00,53,20.40
2012,08,04,00,54,20.40
2012,08,04,00,55,20.30
2012,08,04,00,56,20.30
2012,08,04,00,57,20.20
2012,08,04,00,58,20.20
2012,08,04,00,59,20.10
2012,08,04,01,00,20.10
2012,08,04,01,01,20.00
2012,08,04,01,02,20.00
2012,08,04,01,03,19.90
2012,08,04,01,04,19.80
2012,08,04,01,05,19.80
2012,08,04,01,06,19.70
2012,08,04,01,07,19.70
2012,08,04,01,08,19.70
2012,08,04,01,09,19.60
2012,08,04,01,10,19.60
2012,08,04,01,11,19.60
2012,08,04,01,12,19.60
2012,08,04,01,13,19.50
2012,08,04,01,14,19.50
2012,08,04,01,15,19.50
2012,08,04,01,16,19.40
2012,08,04,01,17,19.40
2012,08,04,01,18,19.40
2012,08,04,01,19,19.40
2012,08,04,01,20,19.30
2012,08,04,01,21,19.30
2012,08,04,01,22,19.20
2012,08,04,01,23,19.20
2012,08,04,01,24,19.10
2012,08,04,01,25,19.10
2012,08,04,01,26,19.00
2012,08,04,01,27,19.00
2012,08,04,01,28,18.90
2012,08,04,01,29,18.90
2012,08,04,01,30,18.80
2012,08,04,01,31,18.80
2012,08,04,01,32,18.70
2012,08,04,01,33,18.70
2012,08,04,01,34,18.70
2012,08,04,01,35,18.60
2012,08,04,01,36,18.60
2012,08,04,01,37,18.50
2012,08,04,01,38,18.50
2012,08,04,01,39,18.50
2012,08,04,01,40,18.40
2012,08,04,01,41,18.40
2012,08,04,01,42,18.30
2012,08,04,01,43,18.30
2012,08,04,01,44,18.30
2012,08,04,01,45,18.20
2012,08,04,01,46,18.20
2012,08,04,01,47,18.10
2012,08,04,01,48,18.10
2012,08,04,01,49,18.10
2012,08,04,01,50,18.00
2012,08,04,01,51,18.00
2012,08,04,01,52,18.00
2012,08,04,01,53,17.90
2012,08,04,01,54,17.90
2012,08,04,01,55,17.90
2012,08,04,01,56,17.80
2012,08,04,01,57,17.80
2012,08,04,01,58,17.80
2012,08,04,01,59,17.70
2012,08,04,02,00,17.70
2012,08,04,02,01,17.70
2012,08,04,02,02,17.70
2012,08,04,02,03,17.60
2012,08,04,02,04,17.60
2012,08,04,02,05,17.60
2012,08,04,02,06,17.50
2012,08,04,02,07,17.50
2012,08,04,02,08,17.50
2012,08,04,02,09,17.40
2012,08,04,02,10,17.40
2012,08,04,02,11,17.40
2012,08,04,02,12,17.40
2012,08,04,02,13,17.30
2012,08,04,02,14,17.30
2012,08,04,02,15,17.30
2012,08,04,02,16,17.30
2012,08,04,02,17,17.30
2012,08,04,02,18,17.30
2012,08,04,02,19,17.20
2012,08,04,02,20,17.20
2012,08,04,02,21,17.20
2012,08,04,02,22,17.20
2012,08,04,02,23,17.20
2012,08,04,02,24,17.10
2012,08,04,02,25,17.10
2012,08,04,02,26,17.10
2012,08,04,02,27,17.00
2012,08,04,02,28,17.00
2012,08,04,02,29,16.90
2012,08,04,02,30,16.90
2012,08,04,02,31,16.90
2012,08,04,02,32,16.80
2012,08,04,02,33,16.80
2012,08,04,02,34,16.80
2012,08,04,02,35,16.80
2012,08,04,02,36,16.70
2012,08,04,02,37,16.70
2012,08,04,02,38,16.70
2012,08,04,02,39,16.70
2012,08,04,02,40,16.70
2012,08,04,02,41,16.60
2012,08,04,02,42,16.60
2012,08,04,02,43,16.60
2012,08,04,02,44,16.60
2012,08,04,02,45,16.60
2012,08,04,02,46,16.60
2012,08,04,02,47,16.50
2012,08,04,02,48,16.50
2012,08,04,02,49,16.50
2012,08,04,02,50,16.50
2012,08,04,02,51,16.50
2012,08,04,02,52,16.50
2012,08,04,02,53,16.50
2012,08,04,02,54,16.40
2012,08,04,02,55,16.40
2012,08,04,02,56,16.40
2012,08,04,02,57,16.40
2012,08,04,02,58,16.40
2012,08,04,02,59,16.40
2012,08,04,03,00,16.40
2012,08,04,03,01,16.40
2012,08,04,03,02,16.40
2012,08,04,03,03,16.30
2012,08,04,03,04,16.30
2012,08,04,03,05,16.30
2012,08,04,03,06,16.30
2012,08,04,03,07,16.30
2012,08,04,03,08,16.30
2012,08,04,03,09,16.30
2012,08,04,03,10,16.30
2012,08,04,03,11,16.30
2012,08,04,03,12,16.30
2012,08,04,03,13,16.20
2012,08,04,03,14,16.20
2012,08,04,03,15,16.20
2012,08,04,03,16,16.20
2012,08,04,03,17,16.20
2012,08,04,03,18,16.20
2012,08,04,03,19,16.10
2012,08,04,03,20,16.10
2012,08,04,03,21,16.10
2012,08,04,03,22,16.10
2012,08,04,03,23,16.10
2012,08,04,03,24,16.10
2012,08,04,03,25,16.00
2012,08,04,03,26,16.00
2012,08,04,03,27,16.00
2012,08,04,03,28,15.90
2012,08,04,03,29,15.90
2012,08,04,03,30,15.90
2012,08,04,03,31,15.90
2012,08,04,03,32,15.90
2012,08,04,03,33,15.90
2012,08,04,03,34,15.90
2012,08,04,03,35,15.80
2012,08,04,03,36,15.80
2012,08,04,03,37,15.80
2012,08,04,03,38,15.80
2012,08,04,03,39,15.80
2012,08,04,03,40,15.80
2012,08,04,03,41,15.80
2012,08,04,03,42,15.80
2012,08,04,03,43,15.80
2012,08,04,03,44,15.70
2012,08,04,03,45,15.70
2012,08,04,03,46,15.70
2012,08,04,03,47,15.70
2012,08,04,03,48,15.70
2012,08,04,03,49,15.70
2012,08,04,03,50,15.70
2012,08,04,03,51,15.70
2012,08,04,03,52,15.70
2012,08,04,03,53,15.70
2012,08,04,03,54,15.70
2012,08,04,03,55,15.60
2012,08,04,03,56,15.60
2012,08,04,03,57,15.60
2012,08,04,03,58,15.60
2012,08,04,03,59,15.60
2012,08,04,04,00,15.60
2012,08,04,04,01,15.60
2012,08,04,04,02,15.60
2012,08,04,04,03,15.60
2012,08,04,04,04,15.60
2012,08,04,04,05,15.60
2012,08,04,04,06,15.60
2012,08,04,04,07,15.50
2012,08,04,04,08,15.50
2012,08,04,04,09,15.50
2012,08,04,04,10,15.50
2012,08,04,04,11,15.50
2012,08,04,04,12,15.50
2012,08,04,04,13,15.50
2012,08,04,04,14,15.50
2012,08,04,04,15,15.50
2012,08,04,04,16,15.50
2012,08,04,04,17,15.60
2012,08,04,04,18,15.60
2012,08,04,04,19,15.60
2012,08,04,04,20,15.60
2012,08,04,04,21,15.60
2012,08,04,04,22,15.60
2012,08,04,04,23,15.70
2012,08,04,04,24,15.70
2012,08,04,04,25,15.70
2012,08,04,04,26,15.70
2012,08,04,04,27,15.80
2012,08,04,04,28,15.80
2012,08,04,04,29,15.80
2012,08,04,04,30,15.80
2012,08,04,04,31,15.80
2012,08,04,04,32,15.80
2012,08,04,04,33,15.80
2012,08,04,04,34,15.80
2012,08,04,04,35,15.80
2012,08,04,04,36,15.80
2012,08,04,04,37,15.80
2012,08,04,04,38,15.80
2012,08,04,04,39,15.80
2012,08,04,04,40,15.80
2012,08,04,04,41,15.80
2012,08,04,04,42,15.80
2012,08,04,04,43,15.80
2012,08,04,04,44,15.80
2012,08,04,04,45,15.80
2012,08,04,04,46,15.80
2012,08,04,04,47,15.80
2012,08,04,04,48,15.80
2012,08,04,04,49,15.80
2012,08,04,04,50,15.80
2012,08,04,04,51,15.80
2012,08,04,04,52,15.70
2012,08,04,04,53,15.70
2012,08,04,04,54,15.70
2012,08,04,04,55,15.70
2012,08,04,04,56,15.70
2012,08,04,04,57,15.70
2012,08,04,04,58,15.60
2012,08,04,04,59,15.60
2012,08,04,05,00,15.60
2012,08,04,05,01,15.60
2012,08,04,05,02,15.60
2012,08,04,05,03,15.50
2012,08,04,05,04,15.50
2012,08,04,05,05,15.50
2012,08,04,05,06,15.50
2012,08,04,05,07,15.40
2012,08,04,05,08,15.40
2012,08,04,05,09,15.40
2012,08,04,05,10,15.40
2012,08,04,05,11,15.40
2012,08,04,05,12,15.30
2012,08,04,05,13,15.30
2012,08,04,05,14,15.30
2012,08,04,05,15,15.30
2012,08,04,05,16,15.30
2012,08,04,05,17,15.30
2012,08,04,05,18,15.30
2012,08,04,05,19,15.30
2012,08,04,05,20,15.30
2012,08,04,05,21,15.30
2012,08,04,05,22,15.30
2012,08,04,05,23,15.30
2012,08,04,05,24,15.30
2012,08,04,05,25,15.30
2012,08,04,05,26,15.30
2012,08,04,05,27,15.30
2012,08,04,05,28,15.30
2012,08,04,05,29,15.30
2012,08,04,05,30,15.30
2012,08,04,05,31,15.30
2012,08,04,05,32,15.30
2012,08,04,05,33,15.30
2012,08,04,05,34,15.30
2012,08,04,05,35,15.30
2012,08,04,05,36,15.30
2012,08,04,05,37,15.30
2012,08,04,05,38,15.30
2012,08,04,05,39,15.30
2012,08,04,05,40,15.30
2012,08,04,05,41,15.30
2012,08,04,05,42,15.30
2012,08,04,05,43,15.30
2012,08,04,05,44,15.30
2012,08,04,05,45,15.30
2012,08,04,05,46,15.30
2012,08,04,05,47,15.30
2012,08,04,05,48,15.30
2012,08,04,05,49,15.30
2012,08,04,05,50,15.30
2012,08,04,05,51,15.30
2012,08,04,05,52,15.20
2012,08,04,05,53,15.20
2012,08,04,05,54,15.20
2012,08,04,05,55,15.20
2012,08,04,05,56,15.20
2012,08,04,05,57,15.20
2012,08,04,05,58,15.20
2012,08,04,05,59,15.20
2012,08,04,06,00,15.30
2012,08,04,06,01,15.30
2012,08,04,06,02,15.30
2012,08,04,06,03,15.30
2012,08,04,06,04,15.30
2012,08,04,06,05,15.30
2012,08,04,06,06,15.30
2012,08,04,06,07,15.30
2012,08,04,06,08,15.30
2012,08,04,06,09,15.30
2012,08,04,06,10,15.30
2012,08,04,06,11,15.30
2012,08,04,06,12,15.40
2012,08,04,06,13,15.40
2012,08,04,06,14,15.40
2012,08,04,06,15,15.40
2012,08,04,06,16,15.40
2012,08,04,06,17,15.40
2012,08,04,06,18,15.40
2012,08,04,06,19,15.40
2012,08,04,06,20,15.40
2012,08,04,06,21,15.40
2012,08,04,06,22,15.40
2012,08,04,06,23,15.40
2012,08,04,06,24,15.40
2012,08,04,06,25,15.30
2012,08,04,06,26,15.40
2012,08,04,06,27,15.30
2012,08,04,06,28,15.40
2012,08,04,06,29,15.40
2012,08,04,06,30,15.40
2012,08,04,06,31,15.40
2012,08,04,06,32,15.40
2012,08,04,06,33,15.40
2012,08,04,06,34,15.40
2012,08,04,06,35,15.40
2012,08,04,06,36,15.40
2012,08,04,06,37,15.40
2012,08,04,06,38,15.40
2012,08,04,06,39,15.40
2012,08,04,06,40,15.40
2012,08,04,06,41,15.40
2012,08,04,06,42,15.30
2012,08,04,06,43,15.30
2012,08,04,06,44,15.30
2012,08,04,06,45,15.40
2012,08,04,06,46,15.40
2012,08,04,06,47,15.40
2012,08,04,06,48,15.40
2012,08,04,06,49,15.40
2012,08,04,06,50,15.40
2012,08,04,06,51,15.50
2012,08,04,06,52,15.50
2012,08,04,06,53,15.60
2012,08,04,06,54,15.60
2012,08,04,06,55,15.70
2012,08,04,06,56,15.80
2012,08,04,06,57,16.00
2012,08,04,06,58,16.10
2012,08,04,06,59,16.30
2012,08,04,07,00,16.40
2012,08,04,07,01,16.50
2012,08,04,07,02,16.60
2012,08,04,07,03,16.70
2012,08,04,07,04,16.80
2012,08,04,07,05,16.90
2012,08,04,07,06,17.00
2012,08,04,07,07,17.10
2012,08,04,07,08,17.10
2012,08,04,07,09,17.20
2012,08,04,07,10,17.30
2012,08,04,07,11,17.40
2012,08,04,07,12,17.40
2012,08,04,07,13,17.50
2012,08,04,07,14,17.60
2012,08,04,07,15,17.60
2012,08,04,07,16,17.70
2012,08,04,07,17,17.80
2012,08,04,07,18,17.90
2012,08,04,07,19,17.90
2012,08,04,07,20,18.00
2012,08,04,07,21,18.00
2012,08,04,07,22,18.10
2012,08,04,07,23,18.10
2012,08,04,07,24,18.20
2012,08,04,07,25,18.20
2012,08,04,07,26,18.20
2012,08,04,07,27,18.20
2012,08,04,07,28,18.30
2012,08,04,07,29,18.30
2012,08,04,07,30,18.30
2012,08,04,07,31,18.40
2012,08,04,07,32,18.40
2012,08,04,07,33,18.40
2012,08,04,07,34,18.50
2012,08,04,07,35,18.50
2012,08,04,07,36,18.60
2012,08,04,07,37,18.70
2012,08,04,07,38,18.80
2012,08,04,07,39,18.80
2012,08,04,07,40,18.90
2012,08,04,07,41,19.00
2012,08,04,07,42,19.00
2012,08,04,07,43,19.10
2012,08,04,07,44,19.20
2012,08,04,07,45,19.20
2012,08,04,07,46,19.20
2012,08,04,07,47,19.30
2012,08,04,07,48,19.40
2012,08,04,07,49,19.40
2012,08,04,07,50,19.40
2012,08,04,07,51,19.40
2012,08,04,07,52,19.50
2012,08,04,07,53,19.50
2012,08,04,07,54,19.60
2012,08,04,07,55,19.60
2012,08,04,07,56,19.70
2012,08,04,07,57,19.70
2012,08,04,07,58,19.70
2012,08,04,07,59,19.80
2012,08,04,08,00,19.80
2012,08,04,08,01,19.80
2012,08,04,08,02,19.90
2012,08,04,08,03,19.90
2012,08,04,08,04,19.90
2012,08,04,08,05,20.00
2012,08,04,08,06,20.00
2012,08,04,08,07,20.10
2012,08,04,08,08,20.10
2012,08,04,08,09,20.10
2012,08,04,08,10,20.10
2012,08,04,08,11,20.20
2012,08,04,08,12,20.20
2012,08,04,08,13,20.30
2012,08,04,08,14,20.30
2012,08,04,08,15,20.30
2012,08,04,08,16,20.30
2012,08,04,08,17,20.30
2012,08,04,08,18,20.30
2012,08,04,08,19,20.30
2012,08,04,08,20,20.30
2012,08,04,08,21,20.30
2012,08,04,08,22,20.30
2012,08,04,08,23,20.30
2012,08,04,08,24,20.30
2012,08,04,08,25,20.30
2012,08,04,08,26,20.30
2012,08,04,08,27,20.30
2012,08,04,08,28,20.30
2012,08,04,08,29,20.30
2012,08,04,08,30,20.30
2012,08,04,08,31,20.30
2012,08,04,08,32,20.30
2012,08,04,08,33,20.30
2012,08,04,08,34,20.40
2012,08,04,08,35,20.40
2012,08,04,08,36,20.40
2012,08,04,08,37,20.40
2012,08,04,08,38,20.50
2012,08,04,08,39,20.50
2012,08,04,08,40,20.60
2012,08,04,08,41,20.60
2012,08,04,08,42,20.60
2012,08,04,08,43,20.70
2012,08,04,08,44,20.70
2012,08,04,08,45,20.70
2012,08,04,08,46,20.70
2012,08,04,08,47,20.80
2012,08,04,08,48,20.80
2012,08,04,08,49,20.80
2012,08,04,08,50,20.80
2012,08,04,08,51,20.80
2012,08,04,08,52,20.80
2012,08,04,08,53,20.80
2012,08,04,08,54,20.90
2012,08,04,08,55,20.90
2012,08,04,08,56,20.90
2012,08,04,08,57,21.00
2012,08,04,08,58,21.10
2012,08,04,08,59,21.10
2012,08,04,09,00,21.10
2012,08,04,09,01,21.10
2012,08,04,09,02,21.10
2012,08,04,09,03,21.10
2012,08,04,09,04,21.20
2012,08,04,09,05,21.20
2012,08,04,09,06,21.20
2012,08,04,09,07,21.20
2012,08,04,09,08,21.10
2012,08,04,09,09,21.10
2012,08,04,09,10,21.10
2012,08,04,09,11,21.00
2012,08,04,09,12,21.00
2012,08,04,09,13,21.00
2012,08,04,09,14,21.00
2012,08,04,09,15,21.00
2012,08,04,09,16,21.10
2012,08,04,09,17,21.10
2012,08,04,09,18,21.10
2012,08,04,09,19,21.10
2012,08,04,09,20,21.10
2012,08,04,09,21,21.10
2012,08,04,09,22,21.10
2012,08,04,09,23,21.10
2012,08,04,09,24,21.10
2012,08,04,09,25,21.10
2012,08,04,09,26,21.10
2012,08,04,09,27,21.20
2012,08,04,09,28,21.20
2012,08,04,09,29,21.20
2012,08,04,09,30,21.20
2012,08,04,09,31,21.20
2012,08,04,09,32,21.20
2012,08,04,09,33,21.20
2012,08,04,09,34,21.20
2012,08,04,09,35,21.20
2012,08,04,09,36,21.20
2012,08,04,09,37,21.20
2012,08,04,09,38,21.20
2012,08,04,09,39,21.30
2012,08,04,09,40,21.30
2012,08,04,09,41,21.30
2012,08,04,09,42,21.40
2012,08,04,09,43,21.40
2012,08,04,09,44,21.40
2012,08,04,09,45,21.40
2012,08,04,09,46,21.40
2012,08,04,09,47,21.40
2012,08,04,09,48,21.40
2012,08,04,09,49,21.40
2012,08,04,09,50,21.40
2012,08,04,09,51,21.50
2012,08,04,09,52,21.50
2012,08,04,09,53,21.50
2012,08,04,09,54,21.50
2012,08,04,09,55,21.60
2012,08,04,09,56,21.60
2012,08,04,09,57,21.70
2012,08,04,09,58,21.70
2012,08,04,09,59,21.80
2012,08,04,10,00,21.80
2012,08,04,10,01,21.80
2012,08,04,10,02,21.80
2012,08,04,10,03,21.90
2012,08,04,10,04,21.90
2012,08,04,10,05,21.90
2012,08,04,10,06,22.00
2012,08,04,10,07,22.00
2012,08,04,10,08,21.90
2012,08,04,10,09,21.90
2012,08,04,10,10,21.90
2012,08,04,10,11,21.90
2012,08,04,10,12,22.00
2012,08,04,10,13,22.00
2012,08,04,10,14,22.10
2012,08,04,10,15,22.10
2012,08,04,10,16,22.10
2012,08,04,10,17,22.10
2012,08,04,10,18,22.10
2012,08,04,10,19,22.00
2012,08,04,10,20,21.90
2012,08,04,10,21,21.90
2012,08,04,10,22,21.90
2012,08,04,10,23,21.80
2012,08,04,10,24,21.80
2012,08,04,10,25,21.80
2012,08,04,10,26,21.80
2012,08,04,10,27,21.80
2012,08,04,10,28,21.80
2012,08,04,10,29,21.80
2012,08,04,10,30,21.80
2012,08,04,10,31,21.80
2012,08,04,10,32,21.90
2012,08,04,10,33,21.90
2012,08,04,10,34,22.00
2012,08,04,10,35,22.00
2012,08,04,10,36,22.10
2012,08,04,10,37,22.10
2012,08,04,10,38,22.10
2012,08,04,10,39,22.10
2012,08,04,10,40,22.20
2012,08,04,10,41,22.20
2012,08,04,10,42,22.20
2012,08,04,10,43,22.20
2012,08,04,10,44,22.20
2012,08,04,10,45,22.30
2012,08,04,10,46,22.30
2012,08,04,10,47,22.30
2012,08,04,10,48,22.40
2012,08,04,10,49,22.40
2012,08,04,10,50,22.40
2012,08,04,10,51,22.50
2012,08,04,10,52,22.50
2012,08,04,10,53,22.60
2012,08,04,10,54,22.70
2012,08,04,10,55,22.70
2012,08,04,10,56,22.70
2012,08,04,10,57,22.70
2012,08,04,10,58,22.70
2012,08,04,10,59,22.70
2012,08,04,11,00,22.70
2012,08,04,11,01,22.70
2012,08,04,11,02,22.70
2012,08,04,11,03,22.70
2012,08,04,11,04,22.70
2012,08,04,11,05,22.70
2012,08,04,11,06,22.80
2012,08,04,11,07,22.80
2012,08,04,11,08,22.90
2012,08,04,11,09,23.00
2012,08,04,11,10,23.10
2012,08,04,11,11,23.20
2012,08,04,11,12,23.20
2012,08,04,11,13,23.20
2012,08,04,11,14,23.20
2012,08,04,11,15,23.20
2012,08,04,11,16,23.20
2012,08,04,11,17,23.30
2012,08,04,11,18,23.40
2012,08,04,11,19,23.40
2012,08,04,11,20,23.50
2012,08,04,11,21,23.60
2012,08,04,11,22,23.60
2012,08,04,11,23,23.60
2012,08,04,11,24,23.60
2012,08,04,11,25,23.60
2012,08,04,11,26,23.70
2012,08,04,11,27,23.70
2012,08,04,11,28,23.70
2012,08,04,11,29,23.70
2012,08,04,11,30,23.70
2012,08,04,11,31,23.70
2012,08,04,11,32,23.70
2012,08,04,11,33,23.60
2012,08,04,11,34,23.50
2012,08,04,11,35,23.40
2012,08,04,11,36,23.40
2012,08,04,11,37,23.40
2012,08,04,11,38,23.50
2012,08,04,11,39,23.60
2012,08,04,11,40,23.60
2012,08,04,11,41,23.60
2012,08,04,11,42,23.60
2012,08,04,11,43,23.70
2012,08,04,11,44,23.80
2012,08,04,11,45,23.80
2012,08,04,11,46,23.90
2012,08,04,11,47,23.80
2012,08,04,11,48,23.70
2012,08,04,11,49,23.60
2012,08,04,11,50,23.60
2012,08,04,11,51,23.60
2012,08,04,11,52,23.70
2012,08,04,11,53,23.80
2012,08,04,11,54,23.80
2012,08,04,11,55,23.90
2012,08,04,11,56,23.90
2012,08,04,11,57,23.90
2012,08,04,11,58,23.90
2012,08,04,11,59,23.80
2012,08,04,12,00,23.80
2012,08,04,12,01,23.90
2012,08,04,12,02,23.90
2012,08,04,12,03,23.90
2012,08,04,12,04,24.00
2012,08,04,12,05,24.00
2012,08,04,12,06,24.00
2012,08,04,12,07,24.00
2012,08,04,12,08,24.00
2012,08,04,12,09,24.00
2012,08,04,12,10,23.90
2012,08,04,12,11,23.90
2012,08,04,12,12,23.90
2012,08,04,12,13,23.90
2012,08,04,12,14,24.00
2012,08,04,12,15,24.00
2012,08,04,12,16,23.90
2012,08,04,12,17,23.90
2012,08,04,12,18,23.90
2012,08,04,12,19,24.00
2012,08,04,12,20,24.00
2012,08,04,12,21,24.10
2012,08,04,12,22,24.20
2012,08,04,12,23,24.30
2012,08,04,12,24,24.30
2012,08,04,12,25,24.30
2012,08,04,12,26,24.30
2012,08,04,12,27,24.30
2012,08,04,12,28,24.30
2012,08,04,12,29,24.40
2012,08,04,12,30,24.40
2012,08,04,12,31,24.40
2012,08,04,12,32,24.40
2012,08,04,12,33,24.40
2012,08,04,12,34,24.40
2012,08,04,12,35,24.40
2012,08,04,12,36,24.40
2012,08,04,12,37,24.50
2012,08,04,12,38,24.60
2012,08,04,12,39,24.60
2012,08,04,12,40,24.70
2012,08,04,12,41,24.70
2012,08,04,12,42,24.70
2012,08,04,12,43,24.70
2012,08,04,12,44,24.80
2012,08,04,12,45,24.80
2012,08,04,12,46,24.90
2012,08,04,12,47,25.10
2012,08,04,12,48,25.20
2012,08,04,12,49,25.30
2012,08,04,12,50,25.30
2012,08,04,12,51,25.30
2012,08,04,12,52,25.30
2012,08,04,12,53,25.30
2012,08,04,12,54,25.20
2012,08,04,12,55,25.20
2012,08,04,12,56,25.20
2012,08,04,12,57,25.10
2012,08,04,12,58,25.20
2012,08,04,12,59,25.30
2012,08,04,13,00,25.30
2012,08,04,13,01,25.40
2012,08,04,13,02,25.40
2012,08,04,13,03,25.40
2012,08,04,13,04,25.40
2012,08,04,13,05,25.30
2012,08,04,13,06,25.30
2012,08,04,13,07,25.30
2012,08,04,13,08,25.40
2012,08,04,13,09,25.30
2012,08,04,13,10,25.40
2012,08,04,13,11,25.40
2012,08,04,13,12,25.40
2012,08,04,13,13,25.40
2012,08,04,13,14,25.40
2012,08,04,13,15,25.30
2012,08,04,13,16,25.30
2012,08,04,13,17,25.20
2012,08,04,13,18,25.20
2012,08,04,13,19,25.20
2012,08,04,13,20,25.20
2012,08,04,13,21,25.20
2012,08,04,13,22,25.30
2012,08,04,13,23,25.30
2012,08,04,13,24,25.30
2012,08,04,13,25,25.40
2012,08,04,13,26,25.40
2012,08,04,13,27,25.40
2012,08,04,13,28,25.40
2012,08,04,13,29,25.40
2012,08,04,13,30,25.50
2012,08,04,13,31,25.60
2012,08,04,13,32,25.60
2012,08,04,13,33,25.60
2012,08,04,13,34,25.60
2012,08,04,13,35,25.70
2012,08,04,13,36,25.70
2012,08,04,13,37,25.70
2012,08,04,13,38,25.80
2012,08,04,13,39,25.80
2012,08,04,13,40,25.90
2012,08,04,13,41,26.00
2012,08,04,13,42,26.10
2012,08,04,13,43,26.10
2012,08,04,13,44,26.10
2012,08,04,13,45,26.20
2012,08,04,13,46,26.20
2012,08,04,13,47,26.10
2012,08,04,13,48,26.10
2012,08,04,13,49,26.10
2012,08,04,13,50,26.00
2012,08,04,13,51,26.00
2012,08,04,13,52,26.10
2012,08,04,13,53,26.10
2012,08,04,13,54,26.10
2012,08,04,13,55,26.10
2012,08,04,13,56,26.10
2012,08,04,13,57,26.20
2012,08,04,13,58,26.30
2012,08,04,13,59,26.40
2012,08,04,14,00,26.40
2012,08,04,14,01,26.40
2012,08,04,14,02,26.40
2012,08,04,14,03,26.30
2012,08,04,14,04,26.30
2012,08,04,14,05,26.20
2012,08,04,14,06,26.10
2012,08,04,14,07,26.10
2012,08,04,14,08,26.00
2012,08,04,14,09,26.00
2012,08,04,14,10,26.00
2012,08,04,14,11,26.20
2012,08,04,14,12,26.30
2012,08,04,14,13,26.40
2012,08,04,14,14,26.50
2012,08,04,14,15,26.50
2012,08,04,14,16,26.40
2012,08,04,14,17,26.40
2012,08,04,14,18,26.50
2012,08,04,14,19,26.60
2012,08,04,14,20,26.60
2012,08,04,14,21,26.60
2012,08,04,14,22,26.60
2012,08,04,14,23,26.60
2012,08,04,14,24,26.70
2012,08,04,14,25,26.70
2012,08,04,14,26,26.80
2012,08,04,14,27,26.80
2012,08,04,14,28,26.80
2012,08,04,14,29,26.80
2012,08,04,14,30,26.80
2012,08,04,14,31,26.80
2012,08,04,14,32,26.80
2012,08,04,14,33,26.70
2012,08,04,14,34,26.70
2012,08,04,14,35,26.70
2012,08,04,14,36,26.70
2012,08,04,14,37,26.70
2012,08,04,14,38,26.70
2012,08,04,14,39,26.70
2012,08,04,14,40,26.70
2012,08,04,14,41,26.70
2012,08,04,14,42,26.70
2012,08,04,14,43,26.70
2012,08,04,14,44,26.80
2012,08,04,14,45,26.80
2012,08,04,14,46,26.80
2012,08,04,14,47,26.90
2012,08,04,14,48,27.00
2012,08,04,14,49,27.10
2012,08,04,14,50,27.10
2012,08,04,14,51,27.00
2012,08,04,14,52,27.00
2012,08,04,14,53,27.00
2012,08,04,14,54,27.00
2012,08,04,14,55,27.00
2012,08,04,14,56,27.00
2012,08,04,14,57,27.10
2012,08,04,14,58,27.10
2012,08,04,14,59,27.20
2012,08,04,15,00,27.20
2012,08,04,15,01,27.20
2012,08,04,15,02,27.30
2012,08,04,15,03,27.40
2012,08,04,15,04,27.50
2012,08,04,15,05,27.50
2012,08,04,15,06,27.50
2012,08,04,15,07,27.50
2012,08,04,15,08,27.60
2012,08,04,15,09,27.70
2012,08,04,15,10,27.80
2012,08,04,15,11,27.80
2012,08,04,15,12,27.90
2012,08,04,15,13,27.90
2012,08,04,15,14,28.00
2012,08,04,15,15,28.00
2012,08,04,15,16,28.10
2012,08,04,15,17,28.10
2012,08,04,15,18,28.10
2012,08,04,15,19,28.20
2012,08,04,15,20,28.10
2012,08,04,15,21,28.00
2012,08,04,15,22,28.00
2012,08,04,15,23,27.90
2012,08,04,15,24,28.00
2012,08,04,15,25,28.10
2012,08,04,15,26,28.10
2012,08,04,15,27,28.10
2012,08,04,15,28,28.20
2012,08,04,15,29,28.20
2012,08,04,15,30,28.30
2012,08,04,15,31,28.30
2012,08,04,15,32,28.40
2012,08,04,15,33,28.50
2012,08,04,15,34,28.50
2012,08,04,15,35,28.50
2012,08,04,15,36,28.40
2012,08,04,15,37,28.50
2012,08,04,15,38,28.40
2012,08,04,15,39,28.40
2012,08,04,15,40,28.30
2012,08,04,15,41,28.40
2012,08,04,15,42,28.40
2012,08,04,15,43,28.40
2012,08,04,15,44,28.40
2012,08,04,15,45,28.30
2012,08,04,15,46,28.30
2012,08,04,15,47,28.30
2012,08,04,15,48,28.30
2012,08,04,15,49,28.30
2012,08,04,15,50,28.30
2012,08,04,15,51,28.30
2012,08,04,15,52,28.30
2012,08,04,15,53,28.30
2012,08,04,15,54,28.30
2012,08,04,15,55,28.40
2012,08,04,15,56,28.40
2012,08,04,15,57,28.40
2012,08,04,15,58,28.40
2012,08,04,15,59,28.50
2012,08,04,16,00,28.60
2012,08,04,16,01,28.70
2012,08,04,16,02,28.70
2012,08,04,16,03,28.70
2012,08,04,16,04,28.70
2012,08,04,16,05,28.70
2012,08,04,16,06,28.70
2012,08,04,16,07,28.70
2012,08,04,16,08,28.70
2012,08,04,16,09,28.80
2012,08,04,16,10,28.90
2012,08,04,16,11,29.10
2012,08,04,16,12,29.20
2012,08,04,16,13,29.20
2012,08,04,16,14,29.20
2012,08,04,16,15,29.30
2012,08,04,16,16,29.30
2012,08,04,16,17,29.30
2012,08,04,16,18,29.20
2012,08,04,16,19,29.10
2012,08,04,16,20,29.10
2012,08,04,16,21,29.10
2012,08,04,16,22,29.00
2012,08,04,16,23,29.10
2012,08,04,16,24,29.10
2012,08,04,16,25,29.00
2012,08,04,16,26,28.90
2012,08,04,16,27,28.80
2012,08,04,16,28,28.90
2012,08,04,16,29,28.90
2012,08,04,16,30,29.00
2012,08,04,16,31,29.10
2012,08,04,16,32,29.20
2012,08,04,16,33,29.30
2012,08,04,16,34,29.30
2012,08,04,16,35,29.30
2012,08,04,16,36,29.20
2012,08,04,16,37,29.20
2012,08,04,16,38,29.20
2012,08,04,16,39,29.10
2012,08,04,16,40,29.10
2012,08,04,16,41,29.10
2012,08,04,16,42,29.00
2012,08,04,16,43,29.00
2012,08,04,16,44,28.90
2012,08,04,16,45,28.80
2012,08,04,16,46,28.90
2012,08,04,16,47,28.90
2012,08,04,16,48,28.80
2012,08,04,16,49,28.80
2012,08,04,16,50,28.80
2012,08,04,16,51,28.80
2012,08,04,16,52,28.70
2012,08,04,16,53,28.70
2012,08,04,16,54,28.70
2012,08,04,16,55,28.70
2012,08,04,16,56,28.70
2012,08,04,16,57,28.70
2012,08,04,16,58,28.60
2012,08,04,16,59,28.60
2012,08,04,17,00,28.60
2012,08,04,17,01,28.60
2012,08,04,17,02,28.50
2012,08,04,17,03,28.50
2012,08,04,17,04,28.50
2012,08,04,17,05,28.50
2012,08,04,17,06,28.60
2012,08,04,17,07,28.60
2012,08,04,17,08,28.60
2012,08,04,17,09,28.60
2012,08,04,17,10,28.60
2012,08,04,17,11,28.60
2012,08,04,17,12,28.60
2012,08,04,17,13,28.60
2012,08,04,17,14,28.70
2012,08,04,17,15,28.70
2012,08,04,17,16,28.80
2012,08,04,17,17,28.80
2012,08,04,17,18,28.80
2012,08,04,17,19,28.80